[[{"header":{"parameterUnit":"m.s-1","parameterCategory":1,"la1":30.2991,"la2":30.254,"lo1":-89.0895,"lo2":-89.0444,"dy":0.0017,"dx":0.0017,"nx":28,"ny":28,"refTime":"2025-01-20T09:00:00:Z","depth":0,"parameterNumber":2,"parameterNumberName":"U-component_of_WINDS"},"data":[0,0,0,0,0,0,0,0,0,0,0,0,0,0,0,0,0,0,0,0,0,0,0,0,0,0,0,0,0,0,0,0,0,0,0,0,0,0,0,0,0,0,0,0,0,0,0,0,0,0,0,0,0,0,0,0,0,0,-1.8383,-1.8383,0,-1.8387,-1.8387,-1.8387,-1.8345,-1.8344,-1.8343,-1.8342,-1.8347,-1.8348,-1.8349,0,0,0,0,0,0,0,0,0,0,0,0,0,-1.8339,-1.834,-1.8383,-1.8383,-1.8383,-1.8387,-1.8387,-1.8387,-1.8346,-1.8344,-1.8343,-1.8341,-1.8346,-1.8348,-1.8349,0,0,0,0,0,0,0,0,0,0,0,0,0,-1.8352,-1.8341,-1.8383,-1.8363,-1.8361,-1.8387,-1.8387,-1.8387,-1.8346,-1.8344,-1.8342,-1.8341,-1.8346,-1.8348,-1.835,-1.8396,0,0,-1.8355,-1.8356,0,0,0,0,0,0,0,0,-1.8352,-1.8354,-1.8366,-1.8364,-1.8362,-1.8364,-1.8374,-1.839,-1.8346,-1.8352,-1.8342,-1.834,-1.8354,-1.8355,-1.836,-1.8396,-1.8396,-1.8355,-1.8356,-1.8357,-1.8358,0,0,0,0,0,0,0,-1.8351,-1.8354,-1.8385,-1.8366,-1.8364,-1.8354,-1.8354,-1.8377,-1.8363,-1.8351,-1.8348,-1.8349,-1.8353,-1.8358,-1.8359,-1.8396,-1.8355,-1.8357,-1.8358,-1.8359,-1.847,-1.8472,0,0,0,0,0,0,-1.8353,-1.8353,-1.8385,-1.8385,-1.8353,-1.8356,-1.8356,-1.8365,-1.8362,-1.836,-1.8351,-1.8347,-1.8356,-1.8357,-1.8359,-1.8414,-1.8357,-1.8359,-1.836,-1.8468,-1.8471,-1.8473,0,0,0,0,0,0,-1.8352,-1.8356,-1.8385,-1.8368,-1.8371,-1.8358,-1.837,-1.8366,-1.8372,-1.8362,-1.8359,-1.8359,-1.8354,-1.8357,-1.8387,-1.8413,-1.836,-1.8361,-1.8466,-1.8469,-1.8472,-1.8522,0,0,0,0,0,0,-1.8351,-1.8356,-1.8373,-1.8369,-1.8372,-1.8412,-1.8371,-1.8368,-1.8375,-1.837,-1.8369,-1.8367,-1.8353,-1.8384,-1.8389,-1.8415,-1.8363,-1.8464,-1.8467,-1.8471,-1.8518,-1.8526,-1.8533,0,0,0,0,0,-1.8349,-1.8387,-1.8374,-1.8378,-1.8394,-1.8414,-1.8415,-1.8399,-1.8377,-1.8394,-1.8388,-1.8367,-1.8409,-1.8388,-1.8392,-1.8419,-1.8462,-1.8466,-1.847,-1.8515,-1.8525,-1.8533,0,0,0,0,0,0,-1.8395,-1.8386,-1.8372,-1.841,-1.8413,-1.8407,-1.8428,-1.841,-1.842,-1.8415,-1.8395,-1.8395,-1.8428,-1.8426,-1.8403,-1.8464,-1.8432,-1.8437,-1.8464,-1.8473,-1.8481,-1.8481,-1.8364,0,0,0,0,0,-1.841,-1.8427,-1.8418,-1.8452,-1.8454,-1.8441,-1.8449,-1.8436,-1.8439,-1.844,-1.8436,-1.8439,-1.8453,-1.8463,-1.8475,-1.8517,-1.8516,-1.8538,-1.8545,-1.8552,-1.8557,-1.8579,-1.8589,-1.8486,-1.8486,-1.8486,0,0,-1.844,-1.8437,-1.8449,-1.8461,-1.8462,-1.848,-1.8442,-1.8463,-1.8477,-1.8443,-1.8471,-1.8468,-1.847,-1.8507,-1.8522,-1.8506,-1.8585,-1.8557,-1.8562,-1.8564,-1.8585,-1.8594,-1.8603,-1.8489,-1.8489,-1.8488,0,0,-1.8505,-1.8504,-1.8532,-1.8534,-1.8536,-1.8526,-1.8533,-1.853,-1.8526,-1.8554,-1.8529,-1.8545,-1.8569,-1.8572,-1.8577,-1.8642,-1.8623,-1.8646,-1.8687,-1.8709,-1.8717,-1.8724,-1.8748,-1.8757,-1.8651,-1.8652,-1.8652,0,-1.8542,-1.8568,-1.8549,-1.8572,-1.8578,-1.8548,-1.8577,-1.8579,-1.8585,-1.859,-1.8572,-1.8602,-1.8601,-1.8638,-1.8654,-1.8658,-1.8666,-1.8647,-1.8717,-1.8724,-1.8731,-1.8753,-1.8762,-1.8654,-1.8654,-1.8654,-1.8654,0,-1.8615,-1.8633,-1.8656,-1.8662,-1.8671,-1.8697,-1.8682,-1.8692,-1.8678,-1.8671,-1.87,-1.8698,-1.871,-1.8717,-1.8704,-1.8752,-1.8742,-1.8721,-1.8689,-1.8744,-1.8765,-1.8773,-1.8659,-1.8658,-1.8657,-1.8656,0,0,-1.871,-1.8704,-1.8713,-1.8716,-1.8715,-1.8729,-1.8753,-1.8764,-1.8774,-1.8779,-1.8799,-1.882,-1.8801,-1.8806,-1.8792,-1.8812,-1.8864,-1.8788,-1.8788,-1.8803,-1.8918,-1.8935,-1.8945,-1.8851,-1.8852,-1.8854,-1.8918,0,-1.8773,-1.8814,-1.8798,-1.884,-1.8857,-1.8829,-1.885,-1.8852,-1.8845,-1.8859,-1.8852,-1.8867,-1.884,-1.8843,-1.8861,-1.8854,-1.8887,-1.8849,-1.887,-1.8871,-1.8872,-1.8956,-1.8974,-1.9035,-1.8926,-1.8927,-1.8928,0,-1.8853,-1.8861,-1.8906,-1.8902,-1.8908,-1.8928,-1.8936,-1.895,-1.8951,-1.8945,-1.8951,-1.8933,-1.8957,-1.8924,-1.8956,-1.893,-1.8938,-1.8936,-1.8938,-1.894,-1.8904,-1.8961,-1.9053,-1.9063,-1.8941,-1.894,-1.8939,0,-1.8919,-1.8941,-1.897,-1.8973,-1.8969,-1.8983,-1.8982,-1.8982,-1.899,-1.8997,-1.9002,-1.9013,-1.9019,-1.9027,-1.9012,-1.899,-1.9047,-1.9013,-1.9043,-1.9044,-1.9058,-1.9057,-1.9153,-1.9061,-1.9061,-1.906,-1.906,0,-1.8992,-1.9021,-1.9,-1.9018,-1.9049,-1.9029,-1.9061,-1.9056,-1.9056,-1.9073,-1.9049,-1.9065,-1.9044,-1.9059,-1.9048,-1.9076,-1.9079,-1.9075,-1.9072,-1.9078,-1.9079,-1.9084,-1.9079,-1.9063,-1.9062,-1.9062,-1.9061,0,-1.9072,-1.9059,-1.9089,-1.9083,-1.9082,-1.9105,-1.9099,-1.9116,-1.9108,-1.913,-1.9133,-1.912,-1.9136,-1.9122,-1.9137,-1.913,-1.9168,-1.9159,-1.9168,-1.9166,-1.9198,-1.9195,-1.9301,-1.9314,-1.9212,-1.9213,-1.9214,0,-1.912,-1.9142,-1.9137,-1.9147,-1.9148,-1.9163,-1.9171,-1.9152,-1.9161,-1.9164,-1.9181,-1.9194,-1.9204,-1.9231,-1.9223,-1.9234,-1.9225,-1.9261,-1.9227,-1.9232,-1.9227,-1.9226,-1.9229,-1.9269,-1.927,-1.9271,-1.9272,0,-1.9208,-1.92,-1.9212,-1.9222,-1.9232,-1.9239,-1.9243,-1.9253,-1.9233,-1.9244,-1.926,-1.9268,-1.9283,-1.9297,-1.9306,-1.9305,-1.9286,-1.9283,-1.929,-1.9298,-1.9303,-1.9301,-1.9189,-1.9281,-1.928,-1.9279,-1.9279,-1.9278,-1.9274,-1.9292,-1.9291,-1.9306,-1.9307,-1.9312,-1.9328,-1.9321,-1.9334,-1.9345,-1.9332,-1.9352,-1.9352,-1.9362,-1.9364,-1.9379,-1.9363,-1.9375,-1.9378,-1.9381,-1.9386,-1.9299,-1.938,-1.938,-1.9379,-1.9379,-1.9379,0,-1.9361,-1.9359,-1.9372,-1.938,-1.9391,-1.9371,-1.9375,-1.9386,-1.9403,-1.9405,-1.9416,-1.9434,-1.9447,-1.944,-1.9452,-1.9465,-1.9456,-1.9469,-1.9468,-1.9468,-1.9399,-1.9391,-1.9476,-1.9476,-1.9476,-1.9476,-1.9476,-1.9476,-1.9408,-1.9437,-1.9429,-1.9459,-1.9456,-1.9475,-1.9479,-1.9484,-1.9486,-1.9507,-1.9518,-1.9513,-1.9511,-1.9522,-1.9534,-1.9531,-1.9537,-1.9553,-1.9548,-1.9483,-1.9473,-1.9464,-1.9457,-1.9554,-1.9554,-1.9616,-1.9617,-1.9617]},{"header":{"parameterUnit":"m.s-1","parameterCategory":1,"la1":30.2991,"la2":30.254,"lo1":-89.0895,"lo2":-89.0444,"dy":0.0017,"dx":0.0017,"nx":28,"ny":28,"refTime":"2025-01-20T09:00:00:Z","depth":0,"parameterNumber":3,"parameterNumberName":"V-component_of_WINDS"},"data":[0,0,0,0,0,0,0,0,0,0,0,0,0,0,0,0,0,0,0,0,0,0,0,0,0,0,0,0,0,0,0,0,0,0,0,0,0,0,0,0,0,0,0,0,0,0,0,0,0,0,0,0,0,0,0,0,0,0,-5.3368,-5.3368,0,-5.342,-5.342,-5.3421,-5.3386,-5.3385,-5.3383,-5.3382,-5.3431,-5.3434,-5.3436,0,0,0,0,0,0,0,0,0,0,0,0,0,-5.3234,-5.3237,-5.3368,-5.3368,-5.3369,-5.342,-5.342,-5.3421,-5.3387,-5.3385,-5.3383,-5.3381,-5.343,-5.3433,-5.3437,0,0,0,0,0,0,0,0,0,0,0,0,0,-5.329,-5.3238,-5.3367,-5.3358,-5.3358,-5.342,-5.342,-5.3421,-5.3387,-5.3385,-5.3382,-5.338,-5.3429,-5.3433,-5.3437,-5.351,0,0,-5.345,-5.3452,0,0,0,0,0,0,0,0,-5.3286,-5.3295,-5.3359,-5.3359,-5.3358,-5.3394,-5.3391,-5.3451,-5.3388,-5.3376,-5.3382,-5.3379,-5.342,-5.3425,-5.344,-5.3512,-5.3514,-5.345,-5.3453,-5.3454,-5.3456,0,0,0,0,0,0,0,-5.3283,-5.3292,-5.3388,-5.336,-5.336,-5.335,-5.3355,-5.3402,-5.341,-5.3377,-5.3374,-5.3381,-5.342,-5.3436,-5.3441,-5.3515,-5.345,-5.3454,-5.3456,-5.3458,-5.3651,-5.3653,0,0,0,0,0,0,-5.328,-5.3289,-5.3386,-5.339,-5.3316,-5.3354,-5.336,-5.3385,-5.341,-5.3412,-5.3383,-5.3379,-5.343,-5.3436,-5.3442,-5.353,-5.3454,-5.3458,-5.3461,-5.3648,-5.3651,-5.3654,0,0,0,0,0,0,-5.3277,-5.3289,-5.3384,-5.3339,-5.335,-5.3359,-5.3387,-5.3387,-5.3404,-5.3415,-5.3416,-5.3399,-5.3428,-5.3437,-5.3494,-5.3532,-5.346,-5.3464,-5.3645,-5.3649,-5.3653,-5.3707,0,0,0,0,0,0,-5.3274,-5.3288,-5.3317,-5.334,-5.3353,-5.3437,-5.339,-5.339,-5.3411,-5.3407,-5.343,-5.3431,-5.3427,-5.3488,-5.3498,-5.3536,-5.3467,-5.3642,-5.3647,-5.3652,-5.3702,-5.3712,-5.3721,0,0,0,0,0,-5.3269,-5.3329,-5.3319,-5.3331,-5.3389,-5.3439,-5.3446,-5.3442,-5.3415,-5.3443,-5.345,-5.343,-5.3526,-5.3494,-5.3505,-5.3545,-5.3639,-5.3645,-5.3651,-5.3697,-5.371,-5.3721,0,0,0,0,0,0,-5.3309,-5.3332,-5.3321,-5.339,-5.3413,-5.3433,-5.3469,-5.3455,-5.3485,-5.3479,-5.3471,-5.3477,-5.3537,-5.3546,-5.3511,-5.3617,-5.3578,-5.3587,-5.3609,-5.3621,-5.3631,-5.3628,-5.3471,0,0,0,0,0,-5.3326,-5.3366,-5.3383,-5.3442,-5.3455,-5.346,-5.3481,-5.3476,-5.3499,-5.3508,-5.3519,-5.3541,-5.3576,-5.3599,-5.3631,-5.3702,-5.3707,-5.3735,-5.3745,-5.3753,-5.376,-5.3799,-5.3812,-5.3674,-5.3674,-5.3673,0,0,-5.3361,-5.3379,-5.3404,-5.3451,-5.3468,-5.3509,-5.3468,-5.3512,-5.3542,-5.3514,-5.357,-5.3579,-5.3602,-5.3667,-5.3696,-5.3677,-5.38,-5.376,-5.3766,-5.377,-5.3807,-5.382,-5.3832,-5.3678,-5.3677,-5.3676,0,0,-5.3447,-5.3464,-5.3516,-5.3534,-5.3561,-5.3564,-5.3577,-5.3599,-5.3605,-5.3661,-5.3641,-5.3675,-5.3735,-5.3754,-5.3771,-5.3863,-5.3846,-5.3874,-5.3925,-5.3963,-5.3974,-5.3983,-5.4017,-5.403,-5.3881,-5.3881,-5.3882,0,-5.3487,-5.3548,-5.3544,-5.359,-5.3612,-5.359,-5.3642,-5.3659,-5.3695,-5.371,-5.3688,-5.3764,-5.3778,-5.3847,-5.387,-5.3884,-5.3898,-5.3872,-5.3973,-5.3982,-5.3991,-5.4024,-5.4036,-5.3885,-5.3884,-5.3884,-5.3884,0,-5.3597,-5.364,-5.3678,-5.3716,-5.3741,-5.379,-5.3792,-5.3818,-5.381,-5.3815,-5.3873,-5.3889,-5.3925,-5.3941,-5.3933,-5.401,-5.3997,-5.3974,-5.3935,-5.4008,-5.4038,-5.4051,-5.389,-5.3888,-5.3887,-5.3887,0,0,-5.3709,-5.3744,-5.3758,-5.3776,-5.3804,-5.3836,-5.3884,-5.3921,-5.3944,-5.3969,-5.4009,-5.406,-5.404,-5.4059,-5.4053,-5.4087,-5.416,-5.4059,-5.406,-5.4079,-5.4246,-5.4264,-5.4278,-5.4149,-5.4151,-5.4153,-5.4244,0,-5.3797,-5.3882,-5.388,-5.3959,-5.3999,-5.3979,-5.402,-5.4041,-5.4047,-5.4081,-5.4086,-5.4124,-5.4094,-5.4105,-5.4137,-5.4145,-5.4194,-5.4138,-5.4185,-5.4187,-5.4181,-5.4294,-5.4313,-5.4399,-5.4256,-5.4258,-5.4259,0,-5.3911,-5.3942,-5.4026,-5.405,-5.4066,-5.4104,-5.4138,-5.4171,-5.4194,-5.4196,-5.4218,-5.4207,-5.4255,-5.4214,-5.4279,-5.4241,-5.426,-5.4266,-5.4269,-5.4274,-5.4229,-5.4303,-5.4426,-5.4439,-5.4278,-5.4276,-5.4275,0,-5.3986,-5.4049,-5.4107,-5.4122,-5.4151,-5.4178,-5.4191,-5.4212,-5.4235,-5.4264,-5.4279,-5.4312,-5.4331,-5.4357,-5.4354,-5.4325,-5.4421,-5.4379,-5.4424,-5.4424,-5.4446,-5.4445,-5.4574,-5.4456,-5.4456,-5.4456,-5.4456,0,-5.4085,-5.4137,-5.4142,-5.4178,-5.4236,-5.4231,-5.4288,-5.4298,-5.4317,-5.4354,-5.4338,-5.4372,-5.4367,-5.4402,-5.44,-5.4455,-5.4463,-5.4465,-5.4464,-5.4468,-5.4467,-5.4481,-5.4475,-5.4459,-5.4458,-5.4458,-5.4457,0,-5.4179,-5.4184,-5.4247,-5.4269,-5.4276,-5.4318,-5.4337,-5.437,-5.4375,-5.4422,-5.4433,-5.444,-5.448,-5.448,-5.4525,-5.4524,-5.4591,-5.4582,-5.4584,-5.4583,-5.4627,-5.4624,-5.4771,-5.479,-5.4659,-5.466,-5.4661,0,-5.4242,-5.4283,-5.431,-5.4335,-5.435,-5.4389,-5.4413,-5.441,-5.4435,-5.4465,-5.4496,-5.4534,-5.4565,-5.4629,-5.4638,-5.4672,-5.4665,-5.4714,-5.467,-5.4672,-5.4667,-5.4665,-5.4669,-5.4723,-5.4725,-5.4726,-5.4727,0,-5.4355,-5.4356,-5.4392,-5.4429,-5.4458,-5.4486,-5.4513,-5.4533,-5.4533,-5.4562,-5.4603,-5.4628,-5.4674,-5.4713,-5.4746,-5.4758,-5.4743,-5.4741,-5.4753,-5.4757,-5.4757,-5.4759,-5.4609,-5.4737,-5.4736,-5.4736,-5.4735,-5.4735,-5.4437,-5.4472,-5.4497,-5.4538,-5.4558,-5.4583,-5.4616,-5.4626,-5.4661,-5.47,-5.4696,-5.4742,-5.4764,-5.4808,-5.4823,-5.4858,-5.4841,-5.4858,-5.4863,-5.4868,-5.4873,-5.475,-5.4864,-5.4864,-5.4863,-5.4863,-5.4863,0,-5.4549,-5.4565,-5.4603,-5.4641,-5.4673,-5.4657,-5.4685,-5.4712,-5.4754,-5.4777,-5.4808,-5.4856,-5.4894,-5.4905,-5.4941,-5.4967,-5.4961,-5.4977,-5.4976,-5.4979,-5.4886,-5.4872,-5.4981,-5.4981,-5.4981,-5.4981,-5.4981,-5.4981,-5.4612,-5.4672,-5.4675,-5.4744,-5.4759,-5.4806,-5.4823,-5.4846,-5.4865,-5.492,-5.4952,-5.4959,-5.4978,-5.5015,-5.5048,-5.505,-5.5065,-5.5084,-5.5083,-5.4997,-5.4985,-5.4974,-5.4961,-5.5087,-5.5087,-5.5173,-5.5174,-5.5175]}]]